Probability
0 0 0 0 0 0 0 0 0 0 0 0 0 0 0 0 0 0 0 0 0 0 0 0 0 0 0 0 0 0 0 0 0 0 0 0 0 0 0 0 0 0 0
0 0 0 0 0 0 0 0 0 0 0 0 0 0 0 0 0 0 0 0 0 0 0 0 0 0 0 0 0 0 0 0 0 0 0 0 0 0 0 0 0 0 0
0 0 0 0 0 0 0 0 0 0 1 1 0 0 0 0 0 0 0 0 0 0 0 0 0 0 0 0 0 0 0 0 0 0 0 0 0 0 0 0 0 0 0
0 0 0 0 0 0 0 0 0 0 1 1 0 0 0 0 0 0 0 0 0 0 0 0 0 0 0 0 0 0 0 0 0 0 0 0 0 0 0 0 0 0 0
0 0 0 0 0 0 0 0 0 0 1 1 0 0 0 0 0 0 0 0 0 0 0 0 0 0 0 0 0 0 0 0 0 0 0 0 0 0 0 0 0 0 0
0 0 0 0 0 0 0 0 0 0 0 0 0 0 0 0 0 0 0 0 0 0 0 0 0 0 0 0 0 0 0 0 0 0 0 0 0 0 0 0 0 0 0
0 0 0 0 0 0 0 0 0 0 0 0 0 0 0 0 0 0 0 0 0 0 0 0 0 0 0 0 0 0 0 0 0 0 0 0 0 0 0 0 0 0 0
0 0 0 0 0 0 0 0 0 0 0 0 0 0 0 0 0 0 0 0 0 0 0 0 0 0 0 0 0 0 0 0 0 0 0 0 0 0 0 0 0 0 0
0 0 0 0 0 0 0 0 0 0 0 0 0 0 0 0 0 0 0 0 0 0 0 0 0 0 0 0 0 0 0 0 0 0 0 0 0 0 0 0 0 0 0
0 0 0 0 0 0 0 0 0 0 0 0 0 0 0 0 0 0 0 0 0 0 0 0 0 0 0 0 0 0 0 0 0 0 0 0 0 0 0 0 0 0 0
0 0 0 0 0 0 0 0 0 0 0 0 0 0 0 0 0 0 0 0 0 0 0 0 0 0 0 0 0 0 0 0 0 0 0 0 0 0 0 0 0 0 0
0 0 0 0 0 0 0 0 0 0 0 0 0 0 0 0 0 0 0 0 0 0 0 0 0 0 0 0 0 0 0 0 0 0 0 0 0 0 0 0 0 0 0
0 0 0 0 0 0 0 0 0 0 0 0 0 0 0 0 0 0 0 0 0 0 0 0 0 0 0 0 0 0 0 0 0 0 0 0 0 0 0 0 0 0 0
0 0 0 0 0 0 0 0 0 0 0 0 0 0 0 0 0 0 0 0 0 0 0 0 0 0 0 0 0 0 0 0 0 0 0 0 0 0 0 0 0 0 0
0 0 0 0 0 0 0 0 0 0 0 0 0 0 0 0 0 0 0 0 0 0 0 0 0 0 0 0 0 0 0 0 0 0 0 0 0 0 0 0 0 0 0
0 0 0 0 0 0 0 0 0 0 0 0 0 0 0 0 0 0 0 0 0 0 0 0 0 0 0 0 0 0 0 0 0 0 0 0 0 0 0 0 0 0 0
0 0 0 0 0 0 0 0 0 0 0 0 0 0 0 0 0 0 0 0 0 0 0 0 0 0 0 0 0 0 0 0 0 0 0 0 0 0 0 0 0 0 0
0 0 0 0 0 0 0 0 0 0 0 0 0 0 0 0 0 0 0 0 0 0 0 0 0 0 0 0 0 0 0 0 0 0 0 0 0 0 0 0 0 0 0
0 0 0 0 0 0 0 0 0 0 0 0 0 0 0 0 0 0 0 0 0 0 0 0 0 0 0 0 0 0 0 0 0 0 0 0 0 0 0 0 0 0 0
0 0 0 0 0 0 0 0 0 0 0 0 0 0 0 0 0 0 0 0 0 0 0 0 0 0 0 0 0 0 0 0 0 0 0 0 0 0 0 0 0 0 0
0 0 0 0 0 0 0 0 0 0 0 0 0 0 0 0 0 0 0 0 0 0 0 0 0 0 0 0 0 0 0 0 0 0 0 0 0 0 0 0 0 0 0
0 0 0 0 0 0 0 0 0 0 0 0 0 0 0 0 0 0 0 0 0 0 0 0 0 0 0 0 0 0 0 0 0 0 0 0 0 0 0 0 0 0 0
0 0 0 0 0 0 0 0 0 0 0 0 0 0 0 0 0 0 0 0 0 0 0 0 0 0 0 0 0 0 0 0 0 0 0 0 0 0 0 0 0 0 0
0 0 0 0 0 0 0 0 0 0 0 0 0 0 0 0 0 0 0 0 0 0 0 0 0 0 0 0 0 0 0 0 0 0 0 0 0 0 0 0 0 0 0
0 0 0 0 0 0 0 0 0 0 0 0 0 0 0 0 0 0 0 0 0 0 0 0 0 0 0 0 0 0 0 0 0 0 0 0 0 0 0 0 0 0 0
0 0 0 0 0 0 0 0 0 0 0 0 0 0 0 0 0 0 0 0 0 0 0 0 0 0 0 0 0 0 0 0 0 0 0 0 0 0 0 0 0 0 0
Wind_Speed
12 12 12 13 12 12 11 12 11 10 11 11 11 10 10 10 9 8 8 8 8 7 6 7 6 6 5 4 3 3 2 2 3 1 0 1 2 3 4 5 6 6 6
9 10 10 10 10 10 11 10 10 10 10 10 10 10 10 9 9 9 9 9 9 9 8 8 7 6 6 5 4 4 3 2 2 2 1 1 2 3 5 6 5 5 6
7 8 9 9 9 9 9 8 9 9 9 9 10 10 10 10 9 9 9 9 9 9 9 9 9 8 7 5 5 4 3 2 1 2 1 1 2 3 5 5 6 5 6
7 7 8 8 7 7 7 7 8 8 9 9 9 9 9 9 9 9 9 9 9 8 7 8 8 8 8 8 6 5 4 4 2 2 2 2 2 2 4 5 5 5 6
7 7 7 6 6 6 6 7 7 7 8 8 9 8 8 8 9 10 10 10 10 9 8 7 7 6 7 6 5 6 5 4 3 2 2 2 2 2 3 4 6 7 7
8 7 6 6 6 6 6 7 7 7 7 8 9 9 9 6 12 15 12 11 10 10 10 8 7 7 7 9 8 7 6 5 4 3 2 2 2 3 3 4 6 7 5
8 7 7 7 7 7 7 7 8 8 8 8 8 9 9 10 16 16 14 10 10 10 10 9 7 6 7 7 7 7 5 4 4 3 3 3 3 2 4 5 5 6 7
8 8 8 8 8 7 8 8 8 7 8 8 8 8 8 10 16 17 15 10 9 9 9 9 9 9 7 7 6 5 4 3 3 3 3 3 3 3 3 5 6 7 8
10 9 9 9 9 9 9 9 8 7 7 7 7 8 9 11 16 17 15 9 8 8 7 7 8 8 10 10 7 5 4 3 2 2 3 3 4 4 3 3 4 5 6
11 9 9 9 9 9 9 8 6 7 7 7 7 7 8 9 16 18 15 8 9 8 6 6 6 7 11 10 6 6 5 4 3 2 2 3 3 2 3 3 3 4 4
7 8 8 8 8 8 8 7 8 8 8 8 8 6 6 8 15 17 15 7 9 9 7 6 6 10 11 11 8 5 5 4 3 3 3 3 2 2 2 2 3 4 5
8 9 8 8 7 7 9 8 8 9 9 9 8 7 5 5 9 13 14 10 10 8 7 6 6 12 11 10 7 6 6 4 3 3 3 3 3 3 2 3 4 5 6
8 8 8 8 7 8 9 10 9 8 8 8 8 8 7 6 7 12 12 12 12 6 5 8 10 12 10 7 7 7 5 4 3 4 4 4 3 2 2 3 4 4 6
9 8 8 8 8 8 7 8 8 9 9 9 9 9 8 7 7 8 7 8 9 7 6 7 10 10 7 5 5 5 4 3 4 4 3 3 2 2 3 3 3 3 4
8 7 7 7 8 7 6 6 7 6 7 9 9 9 11 10 11 14 11 8 8 7 7 5 5 5 5 5 4 4 4 4 4 4 3 3 3 3 3 2 3 3 4
7 7 6 6 6 6 6 4 5 5 6 7 8 8 6 8 15 17 16 14 13 15 9 6 7 7 7 6 6 5 5 5 5 4 4 4 4 3 3 3 3 4 5
7 7 6 6 6 7 7 7 6 5 6 7 9 11 10 11 15 17 16 15 15 15 7 7 7 7 7 7 6 6 5 5 4 4 4 4 4 4 4 4 4 4 4
5 6 6 5 6 6 6 6 6 7 7 5 7 11 11 12 14 16 16 13 10 10 7 7 7 7 7 7 6 6 5 5 5 5 5 4 4 4 4 4 4 5 4
4 4 4 4 5 5 5 5 5 6 6 5 4 7 9 11 12 15 15 9 9 9 8 8 7 7 6 6 6 6 5 5 5 5 5 5 5 5 5 4 4 5 5
3 4 4 4 5 5 5 5 6 6 6 6 7 7 7 8 8 10 10 8 8 8 8 8 7 7 6 6 6 5 5 5 6 6 5 5 5 5 5 5 5 4 4
2 3 4 4 4 5 5 6 6 6 6 6 6 7 11 8 8 9 9 9 8 8 7 7 7 7 6 6 6 7 8 6 6 6 6 5 5 5 5 5 5 5 4
2 2 3 3 3 4 4 4 5 5 6 6 5 6 12 8 7 7 8 8 7 7 6 6 6 6 7 7 7 7 7 7 7 7 6 5 5 5 5 5 5 5 5
2 2 2 2 2 3 4 4 5 5 6 6 5 6 7 8 8 8 8 7 7 6 6 6 7 6 6 6 7 8 8 8 7 7 7 6 6 6 5 6 6 6 5
1 2 2 3 3 3 4 5 5 5 6 6 6 7 7 8 8 8 7 6 6 7 6 7 8 9 10 8 7 7 7 7 7 7 9 7 7 6 6 6 6 7 6
1 2 3 3 3 4 4 5 5 6 6 6 6 6 7 7 7 7 7 6 7 7 8 8 7 8 11 12 10 8 9 11 9 7 7 7 8 8 7 7 6 6 6
2 3 3 3 4 4 4 5 5 6 6 6 6 6 7 7 7 7 7 7 7 7 8 8 9 10 11 10 12 12 12 12 12 11 8 7 8 7 8 7 8 7 7
Wind_Direction
212 212 211 212 209 209 209 206 201 195 189 187 185 181 179 178 174 169 167 163 159 153 151 151 146 143 138 139 135 136 145 182 213 187 245 351 335 341 338 337 333 333 333
207 207 209 208 205 204 204 200 192 187 185 182 177 174 174 171 170 166 163 162 160 158 155 148 145 144 142 142 140 138 139 152 197 214 232 297 297 325 327 325 326 323 321
198 199 202 203 201 201 197 188 182 178 174 171 172 172 171 166 165 163 160 159 157 157 157 154 153 152 151 148 143 142 140 142 156 194 231 271 282 315 320 317 320 318 318
191 194 197 199 195 189 178 174 172 169 167 168 168 165 163 160 157 153 150 149 146 145 147 150 154 157 157 152 147 147 146 148 154 185 230 254 272 306 312 321 321 324 319
186 191 191 183 174 163 161 160 158 158 160 157 153 149 150 154 155 153 150 149 145 140 138 141 145 144 147 148 149 152 156 158 168 195 226 252 274 309 320 323 315 319 314
185 186 177 167 162 160 155 149 146 147 149 149 153 152 155 157 158 155 151 149 146 147 145 141 137 141 142 141 142 149 159 165 176 197 223 250 273 294 310 311 314 321 317
184 178 171 166 163 159 153 150 152 152 149 152 153 153 156 159 159 155 149 147 149 152 149 147 146 147 149 146 148 153 161 180 196 211 228 246 267 285 298 296 298 298 293
182 179 174 171 166 159 157 157 153 151 154 153 153 154 151 156 158 153 146 142 143 147 149 154 153 155 161 157 154 160 170 186 200 222 239 256 272 285 277 284 293 289 282
187 185 180 174 167 165 166 162 154 151 149 148 150 152 151 153 158 155 147 139 139 140 143 152 156 158 165 163 160 167 178 190 203 234 256 266 273 281 287 277 281 290 298
191 183 174 172 170 170 166 157 150 148 146 143 145 152 153 154 161 159 152 145 144 145 147 153 163 166 169 172 172 175 191 199 195 213 234 254 258 261 270 262 269 279 290
167 160 164 168 167 162 153 150 148 145 142 143 144 146 150 157 164 164 162 155 155 155 160 166 175 178 178 181 182 187 198 185 193 209 226 234 236 239 245 252 257 262 268
155 160 163 161 159 154 152 151 152 152 149 149 150 150 151 157 166 171 170 165 160 159 165 167 173 179 182 185 188 189 186 180 189 206 222 231 236 242 252 264 265 265 264
155 161 160 158 158 159 160 160 159 162 162 163 165 165 164 165 172 174 174 170 167 158 159 166 170 175 177 185 192 186 180 187 197 215 227 235 242 257 268 268 262 264 266
159 161 161 162 162 163 167 170 171 174 174 174 176 172 169 173 176 173 171 168 166 158 154 159 166 172 176 175 179 191 198 202 213 224 233 239 241 244 250 263 271 279 277
158 160 163 166 165 168 173 181 186 189 190 183 183 177 174 184 188 181 173 173 171 165 150 152 166 174 187 193 197 201 200 196 209 218 224 229 233 241 250 256 265 268 268
158 165 169 169 168 168 167 164 187 186 192 196 189 183 189 186 177 182 183 178 172 165 160 177 187 193 199 200 201 203 205 209 211 214 220 226 231 238 247 247 250 256 267
165 167 170 172 173 174 174 173 168 169 183 191 190 189 188 182 181 184 184 181 179 176 188 196 199 202 205 205 205 205 207 206 206 214 220 223 228 234 239 242 245 252 261
163 168 172 175 178 181 184 185 180 175 177 186 194 194 190 188 186 185 182 175 186 194 207 207 208 206 206 205 206 207 205 199 202 212 218 220 222 227 234 239 243 250 260
164 167 173 174 178 182 185 187 190 191 190 181 176 189 189 189 188 189 184 193 199 203 207 211 211 208 206 206 206 206 205 205 206 210 216 218 218 223 231 235 243 245 252
162 160 166 172 176 180 185 190 195 198 198 194 195 189 176 180 190 193 197 206 209 210 209 212 211 210 206 204 204 202 204 206 205 211 215 215 215 221 227 230 233 239 243
153 160 167 177 187 190 194 199 201 203 206 208 206 196 190 197 203 203 204 209 213 214 212 212 211 208 206 203 203 205 208 209 207 208 211 211 210 216 223 226 228 232 241
153 165 180 192 194 199 203 207 208 212 214 215 211 208 210 212 215 215 216 218 218 217 214 212 213 211 206 203 201 203 207 210 208 206 209 207 208 213 216 219 223 226 228
164 175 185 199 205 203 209 213 215 217 220 219 214 210 213 217 219 223 225 223 219 217 212 211 214 213 209 207 207 206 209 211 207 201 202 204 206 209 210 216 218 223 226
186 194 199 203 208 214 218 221 223 224 225 223 221 221 222 225 226 227 228 226 221 217 212 212 216 217 213 209 207 210 215 214 205 204 204 204 205 208 209 214 218 218 222
205 212 215 217 219 223 227 229 230 231 231 231 231 231 232 233 233 234 230 225 224 223 220 218 219 220 217 215 212 210 212 212 208 202 199 202 206 208 210 214 215 214 214
223 225 228 229 230 231 233 235 236 236 238 238 238 237 237 238 238 237 234 229 227 226 224 222 222 221 220 219 219 216 214 214 210 205 200 201 204 208 207 213 214 215 214